SCRIPT_RESULTS Banner
Decoded METAR for LQSA

by Dr. Günther Eichhorn

Decoded METAR for LQSA provided by aerobaticsweb.org
Current time: Saturday, 28 May, 2022, 19:15 UTC
(This may take a minute, please be patient)


The most recent METAR observation from LQSA in our system was generated at 2022/05/28 19:00

Original METAR code

2022/05/28 19:00
LQSA 281900Z 30007KT 6000 -DZ SCT010 BKN020 OVC030 12/10 Q1015
METAR Observation for: LQSA
Date/Time of Observation: 28 May 2022, 19:00 UTC (28 May 2022, 21:00 CEST)
Wind: From 300° at 7 kts (13 km/h)
Visibility: 6000 m (3.7 sm)
Weather: Light drizzle
Sky Conditions: Scattered clouds at 1000 ft; broken ceiling at 2000 ft; overcast layer at 3000 ft
Temperature: 12.0° C (53.6° F)
Dew Point: 10.0° C (50.0° F)
Relative Humidity: 88%
Altimeter: 1015 hPa/mbar (29.98" Hg)

24 Hour Summary

Time (UTC) Temperature
°C (°F)
Dew Point
°C (°F)
Pressure
Inches (hPa)
Wind
mph (km/h)
Weather
00:00 28 May 14 (57 ) 13 (55 ) 29.94 (1014) Variable 2 (3)
01:00 28 May 15 (59 ) 14 (57 ) 29.94 (1014) Variable 2 (3)
02:00 28 May 15 (59 ) 13 (55 ) 29.94 (1014) Variable 2 (3)
03:00 28 May 15 (59 ) 14 (57 ) 29.94 (1014) NW 3 (5)
04:00 28 May 16 (60 ) 14 (57 ) 29.94 (1014) Variable 2 (3)
05:00 28 May 17 (62 ) 15 (59 ) 29.94 (1014) W 3 (5)
06:00 28 May 17 (62 ) 15 (59 ) 29.94 (1014) Variable 2 (3)
07:00 28 May 20 (68 ) 16 (60 ) 29.94 (1014) Variable 2 (3)
08:00 28 May 21 (69 ) 15 (59 ) 29.91 (1013) NNW 5 (8)
09:00 28 May 21 (69 ) 15 (59 ) 29.91 (1013) NNW 7 (11)
10:00 28 May 21 (69 ) 15 (59 ) 29.91 (1013) NNW 8 (13)
11:00 28 May 20 (68 ) 14 (57 ) 29.91 (1013) NNW 10 (16)
12:00 28 May 18 (64 ) 13 (55 ) 29.91 (1013) NW 12 (19)
13:00 28 May 17 (62 ) 12 (53 ) 29.91 (1013) NW 10 (16)
14:00 28 May 14 (57 ) 12 (53 ) 29.94 (1014) WNW 14 (23) light rain
15:00 28 May 13 (55 ) 12 (53 ) 29.94 (1014) NW 7 (11) light rain with thunder
16:00 28 May 13 (55 ) 12 (53 ) 29.94 (1014) WNW 8 (13) light rain
17:00 28 May 13 (55 ) 11 (51 ) 29.94 (1014) WNW 9 (14)
18:00 28 May 12 (53 ) 11 (51 ) 29.97 (1015) W 10 (16) light drizzle
19:00 28 May 12 (53 ) 10 (50 ) 29.97 (1015) WNW 8 (13) light drizzle
20:00 27 May 17 (62 ) 15 (59 ) 30.00 (1016) Variable 2 (3)
21:00 27 May 16 (60 ) 15 (59 ) 29.97 (1015) Calm
22:00 27 May 15 (59 ) 15 (59 ) 29.97 (1015) Variable 1 (2)
23:00 27 May 15 (59 ) 14 (57 ) 29.97 (1015) Variable 1 (2)
The information presented here is taken from products produced by the U.S. National Weather Service and other national and international agencies. Landings.com does not present this as official information. Please refer to official weather briefings for flight critical information.


access provided by Dr. Guenther Eichhorn at aerobaticsweb.org